Regional Weather Roundup
Issued by NWS

Home | Current Version | Previous Version | Graphics & Text | Print | Product List | Glossary On
Versions: 1 2 3 4 5 6 7 8 9 10 11 12 13 14 15 16 17 18 19 20 21 22 23 24 25 26 27 28 29 30 31 32 33 34 35 36 37 38 39 40 41 42 43 44 45 46 47 48 49 50
000
ASUS43 KMKX 250320
RWRWI

WISCONSIN REGIONAL WEATHER ROUNDUP
NATIONAL WEATHER SERVICE MILWAUKEE/SULLIVAN WI
1000 PM CDT TUE APR 24 2018

NOTE: "FAIR" INDICATES FEW OR NO CLOUDS BELOW 12,000 FEET WITH NO
SIGNIFICANT WEATHER AND/OR OBSTRUCTIONS TO VISIBILITY.

WIZ001-002-006>008-014>016-023>028-250400-
NORTHWEST WISCONSIN

CITY           SKY/WX    TMP DP  RH WIND       PRES   REMARKS
SUPERIOR ARPT  FAIR      42  24  49 N7        30.26R
ASHLAND        FAIR      39  28  64 N9        30.25R WCI  33
HAYWARD        FAIR      46  27  47 N7        30.21R
SIREN          FAIR      47  25  42 N7        30.22R
CUMBERLAND     FAIR      41  30  65 N7        30.20R
RICE LAKE      FAIR      37  32  85 N5        30.22R WCI  33
CHETEK         FAIR      37  33  85 CALM      30.20R
LADYSMITH      FAIR      36  32  87 CALM      30.21R
EAU CLAIRE     FAIR      44  35  70 NE5       30.19R
MENOMONIE      FAIR      46  35  67 CALM      30.20R
NEW RICHMOND   FAIR      44  30  59 NW5       30.21R
OSCEOLA        FAIR      47  28  47 N6        30.24R
$$

WIZ003>005-009-010-017-018-250400-
NORTH CENTRAL WISCONSIN

CITY           SKY/WX    TMP DP  RH WIND       PRES   REMARKS
MANITOWISH WTR FOG       29  29 100 CALM      30.18S VSB 1/4
ARBOR VITAE    FOG       32  32  97 CALM      30.18S VSB 1/4
WOODRUFF       FOG       32  32  97 CALM      30.18S VSB 1/4
RHINELANDER    FAIR      37  36  96 CALM      30.18R
EAGLE RIVER    FOG       31  31 100 CALM      30.18R VSB 3/4
LAND O LAKES   FAIR      30  30 100 CALM      30.19S
PHILLIPS       FAIR      31  31 100 CALM      30.18S
TOMAHAWK       FOG       33  32  94 CALM      30.19R VSB 1
MEDFORD        FAIR      37  35  90 N6        30.17S WCI  33
MERRILL        MOCLDY    40  39  99 N3        30.18S
$$

WIZ029-030-035-036-043>047-250400-
CENTRAL WISCONSIN

CITY           SKY/WX    TMP DP  RH WIND       PRES   REMARKS
WAUSAU         LGT RAIN  43  40  89 VRB5      30.14R
MOSINEE        CLOUDY    43  39  87 N9        30.15R
MARSHFIELD     CLOUDY    45  37  73 N14       30.15R
STEVENS POINT  CLOUDY    43  35  72 N13G18    30.15R
WAUPACA        CLOUDY    52  32  45 NE6       30.14R
WAUTOMA        NOT AVBL
WISC RAPIDS    LGT RAIN  50  29  44 NE13      30.15R
CAMP DOUGLAS   NOT AVBL
$$

WIZ011>013-019>022-031-037>040-048>050-250400-
NORTHEAST WISCONSIN

CITY           SKY/WX    TMP DP  RH WIND       PRES   REMARKS
ANTIGO         LGT RAIN  38  38  98 N8        30.17R WCI  32
SHAWANO        MOCLDY    47  29  49 NE6       30.14R
OCONTO         CLOUDY    47  28  47 NE8       30.13S
STURGEON BAY   CLOUDY    45  29  53 N14       30.14R
GREEN BAY      CLOUDY    44  31  60 NE18      30.13R
MANITOWOC      FAIR      47  31  53 N16       30.10R
APPLETON       CLOUDY    48  25  40 NE15G26   30.11R
CLINTONVILLE   CLOUDY    49  32  50 NE6       30.13S
OSHKOSH        CLOUDY    49  39  68 N12       30.10R
$$

WIZ032>034-041-042-053>061-250400-
SOUTHWEST WISCONSIN

CITY           SKY/WX    TMP DP  RH WIND       PRES   REMARKS
LA CROSSE      FAIR      54  35  48 N16G30    30.16R
SPARTA         CLOUDY    52  34  50 N6        30.17R
VIROQUA        CLOUDY    52  35  52 N16G24    30.13R
BOSCOBEL       CLOUDY    63  36  36 N17G26    30.08R
PRAIRIE DU CHI FAIR      61  32  33 N13G18    30.08R
PLATTEVILLE    CLOUDY    62  40  45 N10       30.05R
$$

WIZ056-057-062-063-064-067-068-250400-
SOUTH CENTRAL WISCONSIN

CITY           SKY/WX    TMP DP  RH WIND       PRES   REMARKS
REEDSBURG      CLOUDY    55  34  45 N18G28    30.09R
BARABOO/DELLS  CLOUDY    59  31  34 N13G23    30.07R
LONE ROCK      CLOUDY    62  37  39 N20G28    30.06R
MINERAL POINT  MOCLDY    63  37  39 N7        30.05R
MADISON        CLOUDY    55  35  47 NE3       30.03R
MIDDLETON      CLOUDY    56  42  60 NW5       30.04R
WATERTOWN      CLOUDY    53  49  84 E8        30.05R
MONROE         CLOUDY    59  28  31 N6        30.02R
JANESVILLE     CLOUDY    55  45  67 E3        30.01S
$$

WIZ051-052-058>065-066-070>072-250400-
SOUTHEAST WISCONSIN

CITY           SKY/WX    TMP DP  RH WIND       PRES   REMARKS
MILWAUKEE      FAIR      45  41  86 N12       30.05R
WAUKESHA       FAIR      45  41  87 NE12      30.06R
MILWAUKEE/TIMM FAIR      46  30  53 NE12G21   30.07R
RACINE         FAIR      43  42  97 N12       30.05F
BURLINGTON     FAIR      49  46  87 E6        30.03S
KENOSHA        FAIR      48  44  86 NE8       30.03S
FOND DU LAC    MOCLDY    50  31  48 NE14      30.09R
SHEBOYGAN      FAIR      46  33  60 NE22G29   30.08R
WEST BEND      FAIR      46  30  53 NE16G22   30.07S
JUNEAU         MOCLDY    50  34  55 NE12G17   30.08R
$$

LSZ147-162-250400-
LAKE SUPERIOR

STATION/POSITION TIME  TEMP    WIND        PRES    WAVE
                       AIR SEA DIR/SP/G            HT/PER
                 (UTC) (F)     (DEG/KT/KT) (MB)    (FT/S)
DEVILS ISLAND    0300   38      20/ 13/ 14 1025.5R
SAXON HARBOR     0240   37     340/  4/  7 1023.4R
$$

LMZ867-665-643>646-250400-
LAKE MICHIGAN

STATION/POSITION TIME  TEMP    WIND        PRES    WAVE
                       AIR SEA DIR/SP/G            HT/PER
                 (UTC) (F)     (DEG/KT/KT) (MB)    (FT/S)
NORTHPORT PIER   0240   38                 1020.3R
KEWAUNEE LAKESHO 0254   45      10/ 10/ 13 1019.2R
SHEBOYGAN LAKESH 0300   41      10/ 18/ 19 1019.4R
PORT WASHINGTON  0252   49      20/ 14/ 27 1019.3R
MILWAUKEE LAKESH 0300   45     360/ 17/ 21   N/A
KENOSHA   LAKESH 0300   42                 1016.9
$$

TC  - TEMPERATURE IN CELSIUS
VSB - VISIBILITY IN STATUTE MILES
WCI - WIND CHILL INDEX
HX  - HEAT INDEX





USA.gov is the U.S. government's official web portal to all federal, state and local government web resources and services.